Tiempo atmosférico en la estación meteorológica de Cebreros, Ávila (850 m.)



Fecha
DESCASC
Temp. máxima en grados centígrados (hora)
DESCASC
Temp. mínima en grados centígrados (hora)
DESCASC
Temp. media en grados centígrados
DESCASC
Racha de viento máxima en m/sg (hora)
DESCASC
Velocidad máxima media en intervalos de 10 minutos(hora)
DESCASC
Precipitaciones diarias en mm
DESCASC
Precipitaciones de 00:00 a 06:00 en mm
DESCASC
Precipitaciones de 06:00 a 12:00 en mm
DESCASC
Precipitaciones de 12:00 a 18:00 en mm
DESCASC
Precipitaciones de 18:00 a 24:00 en mm
DESCASC
16-06-2019 29.4 (17:00) 11.6 (05:20) 20.5 8.61 (13:30) 4.17 (03:00) 0 0 0 0 0
15-06-2019 26.6 (19:00) 10.2 (06:50) 18.4 -- (--) -- (--) -- 0 0 -- 0
14-06-2019 24.2 (14:10) 9.6 (06:40) 16.9 -- (--) -- (--) -- 0 0 -- 0
13-06-2019 26.6 (16:20) 10.1 (00:00) 18.4 12.5 (13:40) 5 (14:50) 0 0 0 0 0
12-06-2019 25 (18:40) 7.4 (00:00) 16.2 -- (--) -- (--) -- 0 0 -- 0
11-06-2019 19.5 (16:40) 11.5 (00:00) 15.5 17.5 (03:10) 9.17 (06:40) 0 0 0 0 0
10-06-2019 25 (18:40) 11.3 (00:00) 18.2 11.94 (01:30) 6.67 (01:40) 0 0 0 0 0
09-06-2019 26.8 (14:20) 11.1 (00:00) 18.9 11.39 (23:59) 6.39 (15:20) 0 0 0 0 0
08-06-2019 26.6 (16:20) 8.4 (00:00) 17.5 9.17 (16:00) 4.44 (14:00) 0 0 0 0 0
07-06-2019 21.3 (18:20) 7.7 (00:00) 14.5 13.06 (09:20) 5.56 (04:40) 0.6 0.6 0 0 0
06-06-2019 21.5 (16:40) 7.4 (00:00) 14.5 10.83 (17:30) 5.56 (11:30) 0 0 0 0 0
05-06-2019 20.6 (18:20) 9.6 (00:00) 15.1 15.56 (05:10) 8.33 (05:10) 0 0 0 0 0
04-06-2019 28.6 (13:20) 15.1 (00:00) 21.9 10.83 (13:00) 6.11 (13:00) 0 0 0 0 0
03-06-2019 33.1 (13:50) 19 (00:00) 26 12.78 (13:40) 5.28 (02:10) 0 0 0 0 0
02-06-2019 33.6 (16:30) 17.4 (00:00) 25.5 11.39 (15:50) 5 (02:40) 0 0 0 0 0
01-06-2019 33.3 (17:10) 15.3 (00:00) 24.3 6.94 (18:40) 4.17 (23:00) 0 0 0 0 0
31-05-2019 31.5 (16:40) 14.4 (00:00) 22.9 8.61 (17:00) 3.33 (17:00) 0 0 0 0 0
30-05-2019 30.3 (20:00) 10.8 (00:00) 20.5 8.89 (00:20) 4.17 (00:20) 0 0 0 0 0
29-05-2019 -- (--) -- (--) -- -- (--) -- (--) -- 0 0 0 --
28-05-2019 24.1 (16:00) 12.7 (00:00) 18.4 -- (--) -- (--) -- 0 0 -- 0
27-05-2019 26.9 (17:30) 14.6 (00:00) 20.8 10.56 (16:30) 4.44 (16:30) 0 0 0 0 0
26-05-2019 24.9 (18:10) 9 (00:00) 16.9 13.33 (15:30) 6.67 (14:10) 0 0 0 0 0
25-05-2019 23.1 (17:20) 9.8 (00:00) 16.5 14.44 (05:00) 6.39 (04:40) 0 0 0 0 0
24-05-2019 22.4 (16:20) 12.3 (00:00) 17.3 15.83 (15:30) 6.94 (09:50) 0 0 0 0 0
23-05-2019 28.5 (16:20) 15.1 (00:00) 21.8 10.28 (23:50) 5 (23:40) 0 0 0 0 0
22-05-2019 28.2 (16:30) 9.7 (00:00) 19 7.22 (15:20) 3.06 (01:30) 0 0 0 0 0

Gráficas

Temp. máximas Temp. mínimas Temp. medias Precipitaciones Rachas de viento máximas Velocidades máximas media en intervalos de 10 minutos

Datos horarios

Fecha y hora oficial Temperatura (ºC) Velocidad del viento (km/h) Dirección del viento Racha (km/h) Dirección de racha Precipitación (mm) Presión (hPa) Tendencia (hPa) Humedad (%)
2019-06-20 23:00:00 19.5 14 Noroeste 31 Norte 0 -- -- 51
2019-06-20 22:00:00 20.1 10 Norte 31 Noroeste 0 -- -- 50
2019-06-20 21:00:00 23.6 6 Sudoeste 18 Sudoeste 0 -- -- 36
2019-06-20 20:00:00 25.6 8 Sudoeste 24 Sudoeste 0 -- -- 32
2019-06-20 19:00:00 27.8 8 Sur 26 Oeste 0 -- -- 28
2019-06-20 18:00:00 27.9 11 Sudoeste 25 Sur 0 -- -- 28
2019-06-20 17:00:00 28 9 Sudoeste 26 Sur 0 -- -- 29
2019-06-20 16:00:00 28.2 10 Sudoeste 28 Sur 0 -- -- 29
2019-06-20 15:00:00 26.3 15 Sudeste 29 Sudeste 0 -- -- 30
2019-06-20 14:00:00 26.3 8 Sur 28 Sudeste 0 -- -- 34
2019-06-20 13:00:00 23.9 10 Sudeste 24 Sudeste 0 -- -- 38
2019-06-20 12:00:00 22.6 4 Sudeste 20 Sur 0 -- -- 43
2019-06-20 11:00:00 22.8 8 Este 16 Sudeste 0 -- -- 44
2019-06-20 10:00:00 21.5 6 Sudeste 12 Noroeste 0 -- -- 47
2019-06-20 09:00:00 19.3 6 Oeste 22 Noroeste 0 -- -- 53
2019-06-20 08:00:00 16.4 10 Oeste 25 Oeste 0 -- -- 61
2019-06-20 07:00:00 16.1 14 Oeste 29 Oeste 0 -- -- 62
2019-06-20 06:00:00 16.4 16 Noroeste 30 Oeste 0 -- -- 62
2019-06-20 05:00:00 16.8 14 Noroeste 33 Noroeste 0 -- -- 61
2019-06-20 04:00:00 17.5 14 Noroeste 29 Noroeste 0 -- -- 60
2019-06-20 03:00:00 17.9 15 Noroeste 33 Noroeste 0 -- -- 58
2019-06-20 02:00:00 18.4 18 Noroeste 35 Noroeste 0 -- -- 54
2019-06-20 01:00:00 19.1 10 Noroeste 24 Noroeste 0 -- -- 49
2019-06-20 00:00:00 19.9 13 Noroeste 28 Noroeste 0 -- -- 46
2019-06-19 23:00:00 20.5 9 Noroeste 21 Noroeste 0 -- -- 44
2019-06-19 22:00:00 21.5 8 Noroeste 19 Oeste 0 -- -- 42
2019-06-19 21:00:00 23 9 Norte 22 Norte 0 -- -- 40
2019-06-19 20:00:00 24 12 Nordeste 27 Nordeste 0 -- -- 38
2019-06-19 19:00:00 23.8 12 Este 23 Sur 0 -- -- 42
2019-06-19 18:00:00 23.8 9 Sudeste 26 Sur 0 -- -- 42
2019-06-19 17:00:00 27.4 11 Sur 29 Sur 0 -- -- 36
2019-06-19 16:00:00 27.1 9 Sur 24 Sur 0 -- -- 38
2019-06-19 15:00:00 26 12 Sudeste -- -- -- -- -- 40
2019-06-19 14:00:00 24.4 13 Sudeste 32 Sur 0 -- -- 43
2019-06-19 13:00:00 24.8 13 Sudeste 23 Sudeste 0 -- -- 42
2019-06-19 12:00:00 22.9 11 Sudeste 24 Sur 0 -- -- 46
2019-06-19 11:00:00 23.3 8 Sudeste 19 Sudeste 0 -- -- 45
2019-06-19 10:00:00 20.5 8 Sudeste 15 Sur 0 -- -- 53
2019-06-19 09:00:00 20.6 5 Este 10 Este 0 -- -- 52
2019-06-19 08:00:00 19 2 Nordeste 12 Noroeste 0 -- -- 56
2019-06-19 07:00:00 13.9 4 Noroeste 13 Noroeste 0 -- -- 73
2019-06-19 06:00:00 15.5 7 Noroeste 15 Noroeste 0 -- -- 69
2019-06-19 05:00:00 15.5 8 Noroeste 14 Noroeste 0 -- -- 68
2019-06-19 04:00:00 16.1 6 Noroeste 9 Noroeste 0 -- -- 66
2019-06-19 03:00:00 -- -- -- -- -- -- -- -- --
2019-06-19 02:00:00 17.8 9 Noroeste 13 Noroeste 0 -- -- 59
2019-06-19 01:00:00 18.1 0 Calma 13 Oeste 0 -- -- 56
2019-06-19 00:00:00 19.9 9 Sudoeste 19 Oeste 0 -- -- 50
2019-06-18 23:00:00 20.3 11 Oeste -- -- -- -- -- 46
2019-06-18 22:00:00 -- -- -- -- -- -- -- -- --
2019-06-18 21:00:00 -- -- -- -- -- -- -- -- --
2019-06-18 20:00:00 -- -- -- -- -- -- -- -- --
2019-06-18 19:00:00 26.9 10 Sur 31 Sur 0 -- -- 31
2019-06-18 18:00:00 27.4 12 Sudoeste 36 Sur 0 -- -- 26
2019-06-18 17:00:00 28 12 Sur 32 Sudoeste 0 -- -- 19
2019-06-18 16:00:00 27.7 12 Sudoeste 30 Sudeste 0 -- -- 21
2019-06-18 15:00:00 28.2 12 Sur 31 Sur 0 -- -- 21
2019-06-18 14:00:00 27.4 12 Sur 35 Sudeste 0 -- -- 21
2019-06-18 13:00:00 26.1 12 Sur 28 Sur 0 -- -- 24
2019-06-18 12:00:00 25.1 13 Sur 34 Sudeste 0 -- -- 25
2019-06-18 11:00:00 23.1 20 Sudeste 32 Sudeste 0 -- -- 29
2019-06-18 10:00:00 -- -- -- -- -- -- -- -- --
2019-06-18 09:00:00 21.8 9 Este 15 Este 0 -- -- 30
2019-06-18 08:00:00 18.5 4 Norte 9 Noroeste 0 -- -- 33
2019-06-18 07:00:00 15.3 5 Norte 10 Norte 0 -- -- 36
2019-06-18 06:00:00 15.2 4 Norte 9 Noroeste 0 -- -- 36
2019-06-18 05:00:00 17 4 Noroeste 6 Noroeste 0 -- -- 33
2019-06-18 04:00:00 18.2 0 Calma 5 Noroeste -- -- -- 31
2019-06-18 03:00:00 19.8 2 Nordeste 12 Noroeste 0 -- -- 30
2019-06-18 02:00:00 21.1 5 Norte 15 Noroeste 0 -- -- 28
2019-06-18 01:00:00 23.1 7 Oeste 12 Noroeste 0 -- -- 25
2019-06-18 00:00:00 23.4 9 Oeste 14 Oeste 0 -- -- 25
2019-06-17 23:00:00 23.8 6 Oeste 12 Oeste 0 -- -- 25
2019-06-17 22:00:00 24.7 6 Oeste 10 Oeste 0 -- -- 25
2019-06-17 21:00:00 26.1 3 Sudoeste 20 Sudoeste 0 -- -- 22
2019-06-17 20:00:00 27.9 8 Sur 25 Sudoeste 0 -- -- 19
2019-06-17 19:00:00 30.9 9 Sudoeste 25 Sudoeste 0 -- -- 17
2019-06-17 18:00:00 29 9 Sur 32 Sudoeste 0 -- -- 21
2019-06-17 17:00:00 30.3 12 Sur 28 Sur 0 -- -- 21
2019-06-17 16:00:00 29.3 13 Sur 32 Sur 0 -- -- 20
2019-06-17 15:00:00 29.7 10 Sudoeste 27 Sudeste 0 -- -- 22
2019-06-17 14:00:00 28.7 13 Sur 30 Sur 0 -- -- 22
2019-06-17 13:00:00 27.2 14 Sur 31 Sur 0 -- -- 24
2019-06-17 12:00:00 26.3 10 Sudeste 21 Sudeste 0 -- -- 25
2019-06-17 11:00:00 24.8 5 Sur 15 Sur 0 -- -- 25
2019-06-17 10:00:00 23.6 5 Sudoeste 11 Sudoeste 0 -- -- 25
2019-06-17 09:00:00 22.8 3 Sur 7 Sur 0 -- -- 26
2019-06-17 08:00:00 18.1 2 Sudeste 12 Noroeste 0 -- -- 30
2019-06-17 07:00:00 13.7 4 Noroeste 10 Oeste 0 -- -- 33
2019-06-17 06:00:00 13.1 0 Calma 20 Noroeste 0 -- -- 39
2019-06-17 05:00:00 15.2 6 Noroeste 17 Oeste 0 -- -- 36
2019-06-17 04:00:00 16.7 3 Noroeste 26 Oeste 0 -- -- 34
2019-06-17 03:00:00 17.4 6 Oeste 20 Noroeste 0 -- -- 34
2019-06-17 02:00:00 16.2 4 Norte 13 Oeste 0 -- -- 36
2019-06-17 01:00:00 18.7 6 Noroeste 10 Noroeste 0 -- -- 31
2019-06-17 00:00:00 20.1 6 Noroeste 18 Noroeste 0 -- -- 29
2019-06-16 23:00:00 21.3 7 Noroeste 14 Noroeste 0 -- -- 27
2019-06-16 22:00:00 21.9 5 Noroeste 13 Sur 0 -- -- 25
2019-06-16 21:00:00 24.6 6 Sur 16 Sur 0 -- -- 23
2019-06-16 20:00:00 26.1 5 Sur 18 Sur 0 -- -- 21
2019-06-16 19:00:00 26.9 8 Sur 23 Sur 0 -- -- 20
2019-06-16 18:00:00 28.1 10 Sudoeste 30 Sudoeste 0 -- -- 17
2019-06-16 17:00:00 29.4 10 Sudoeste 30 Sudeste 0 -- -- 19
2019-06-16 16:00:00 27.3 9 Sur 27 Sudeste 0 -- -- 23
2019-06-16 15:00:00 27.2 9 Sur 27 Sudeste 0 -- -- 23
2019-06-16 14:00:00 25.8 11 Sur 31 Sudeste 0 -- -- 23
2019-06-16 13:00:00 26.5 8 Sur 22 Sur 0 -- -- 24
2019-06-16 12:00:00 24.9 9 Sudeste 22 Sur 0 -- -- 25
2019-06-16 11:00:00 24.6 5 Sudoeste 11 Sudoeste 0 -- -- 28
2019-06-16 10:00:00 22.9 4 Sudoeste 10 Sudoeste 0 -- -- 29
2019-06-16 09:00:00 20.2 3 Sudeste 6 Sudeste 0 -- -- 32
2019-06-16 08:00:00 16.7 2 Nordeste 4 Este 0 -- -- 38
2019-06-16 07:00:00 11.9 3 Oeste 7 Oeste 0 -- -- 46
2019-06-16 06:00:00 11.9 4 Noroeste 9 Oeste 0 -- -- 44
2019-06-16 05:00:00 14 9 Noroeste 15 Noroeste 0 -- -- 39
2019-06-16 04:00:00 13.7 2 Sudoeste 21 Noroeste 0 -- -- 39
2019-06-16 03:00:00 16.4 15 Noroeste 22 Oeste 0 -- -- 34
2019-06-16 02:00:00 16.7 13 Oeste 21 Oeste 0 -- -- 33
2019-06-16 01:00:00 16.8 4 Sudoeste 10 Noroeste 0 -- -- 33
2019-06-16 00:00:00 18 6 Norte 20 Norte 0 -- -- 31
2019-06-15 23:00:00 18.5 7 Norte 19 Norte 0 -- -- 31
2019-06-15 22:00:00 19.9 8 Norte 14 Norte 0 -- -- 32
2019-06-15 21:00:00 21.5 8 Sur 17 Sur 0 -- -- 33
2019-06-15 20:00:00 25.1 8 Sur 19 Sudeste 0 -- -- 28
2019-06-15 19:00:00 26.6 6 Sudoeste 25 Sudeste 0 -- -- 25
2019-06-15 18:00:00 -- -- -- -- -- -- -- -- --
2019-06-15 17:00:00 24.7 12 Sudoeste 29 Sudeste 0 -- -- 26
2019-06-15 16:00:00 23.9 9 Sudeste 24 Sudeste 0 -- -- 28
2019-06-15 15:00:00 23.2 6 Oeste 21 Sur 0 -- -- 26
2019-06-15 14:00:00 22 8 Sur 22 Sur 0 -- -- 28
2019-06-15 13:00:00 20.7 9 Sudoeste 26 Este 0 -- -- 32
2019-06-15 12:00:00 19.7 9 Sudeste 18 Norte 0 -- -- 33
2019-06-15 11:00:00 18.2 6 Noroeste 21 Oeste 0 -- -- 38
2019-06-15 10:00:00 16.3 11 Oeste 25 Oeste 0 -- -- 42
2019-06-15 09:00:00 14.2 12 Noroeste 27 Norte 0 -- -- 50
2019-06-15 08:00:00 11.8 13 Noroeste 28 Norte 0 -- -- 61
2019-06-15 07:00:00 10.2 10 Noroeste 32 Noroeste 0 -- -- 66
2019-06-15 06:00:00 10.5 9 Noroeste 31 Noroeste 0 -- -- 65
2019-06-15 05:00:00 11.1 15 Noroeste 49 Noroeste 0 -- -- 61
2019-06-15 04:00:00 11.5 18 Noroeste 38 Noroeste 0 -- -- 59
2019-06-15 03:00:00 11.8 18 Noroeste 34 Noroeste 0 -- -- 55
2019-06-15 02:00:00 12.4 15 Noroeste 32 Oeste 0 -- -- 53
2019-06-15 01:00:00 13.5 13 Noroeste 26 Noroeste 0 -- -- 49
2019-06-15 00:00:00 14.6 9 Noroeste 29 Sudoeste 0 -- -- 44
2019-06-14 23:00:00 15.3 6 Noroeste 21 Oeste 0 -- -- 40
2019-06-14 22:00:00 16.2 4 Sudoeste 15 Sur 0 -- -- 36
2019-06-14 21:00:00 17.8 9 Sudoeste 24 Sudoeste 0 -- -- 33
2019-06-14 20:00:00 21.7 8 Sudoeste 24 Sudoeste 0 -- -- 27
2019-06-14 19:00:00 22.9 8 Sur 26 Sur 0 -- -- 23
2019-06-14 18:00:00 23.9 10 Sudoeste 29 Sudoeste 0 -- -- 22
2019-06-14 17:00:00 23.6 10 Sur 30 Sudoeste 0 -- -- 23
2019-06-14 16:00:00 24 10 Sudoeste 34 Sur 0 -- -- 24
2019-06-14 15:00:00 -- -- -- -- -- -- -- -- --
2019-06-14 14:00:00 23.5 13 Sudoeste 28 Oeste 0 -- -- 21
2019-06-14 13:00:00 22 9 Sur 35 Sudeste 0 -- -- 27
2019-06-14 12:00:00 21.9 12 Sur 31 Sudoeste 0 -- -- 28
2019-06-14 11:00:00 21.9 11 Sur 24 Sur 0 -- -- 29
2019-06-14 10:00:00 19 10 Sudeste 18 Sur 0 -- -- 33
2019-06-14 09:00:00 18.5 3 Sudeste 10 Este 0 -- -- 32
2019-06-14 08:00:00 14.3 6 Nordeste 9 Nordeste 0 -- -- 34
2019-06-14 07:00:00 10.8 6 Noroeste 11 Noroeste 0 -- -- 39
2019-06-14 06:00:00 12.3 4 Noroeste 12 Noroeste 0 -- -- 36
2019-06-14 05:00:00 13.4 3 Noroeste 10 Noroeste 0 -- -- 34
2019-06-14 04:00:00 15.8 8 Noroeste 13 Oeste 0 -- -- 30
2019-06-14 03:00:00 16.1 5 Noroeste 9 Noroeste 0 -- -- 28
2019-06-14 02:00:00 16.8 3 Sudeste 18 Noroeste 0 -- -- 26
2019-06-14 01:00:00 17.5 5 Noroeste 18 Noroeste 0 -- -- 25
2019-06-14 00:00:00 18.8 6 Noroeste 17 Oeste 0 -- -- 23
2019-06-13 23:00:00 19.2 12 Noroeste 26 Noroeste 0 -- -- 22
2019-06-13 22:00:00 19.2 12 Noroeste 21 Noroeste 0 -- -- 23
2019-06-13 21:00:00 20.7 5 Oeste 19 Sudoeste 0 -- -- 24
2019-06-13 20:00:00 25 5 Sudoeste 22 Sur 0 -- -- 22
2019-06-13 19:00:00 24.7 9 Sudoeste 23 Sudoeste 0 -- -- 23
2019-06-13 18:00:00 25.1 12 Sudoeste 32 Sur 0 -- -- 24
2019-06-13 17:00:00 25.6 11 Sur 31 Sur 0 -- -- 21
2019-06-13 16:00:00 25.6 12 Sur 34 Sur 0 -- -- 23
2019-06-13 15:00:00 25.5 13 Sur 37 Sur 0 -- -- 23
2019-06-13 14:00:00 24.1 13 Sur 45 Sudeste 0 -- -- 26
2019-06-13 13:00:00 22.1 12 Sur 26 Sudeste 0 -- -- 30
2019-06-13 12:00:00 20 10 Sudeste 25 Sudeste 0 -- -- 39
2019-06-13 11:00:00 20 11 Sudeste 23 Este 0 -- -- 42
2019-06-13 10:00:00 18.7 6 Sudoeste 13 Sur 0 -- -- 47
2019-06-13 09:00:00 17.8 5 Sudoeste 9 Sur 0 -- -- 44
2019-06-13 08:00:00 16.1 3 Sudoeste 7 Sudoeste 0 -- -- 45
2019-06-13 07:00:00 10.4 0 Calma 5 Sudoeste 0 -- -- 57
2019-06-13 06:00:00 11.4 3 Oeste 8 Noroeste 0 -- -- 54
2019-06-13 05:00:00 10.6 4 Noroeste 13 Oeste 0 -- -- 35
2019-06-13 04:00:00 10.7 8 Norte 15 Nordeste 0 -- -- 35
2019-06-13 03:00:00 12.5 6 Noroeste 13 Noroeste 0 -- -- 31
2019-06-13 02:00:00 11.4 4 Noroeste 9 Noroeste 0 -- -- 32
2019-06-13 01:00:00 12.5 2 Nordeste 16 Noroeste 0 -- -- 29
2019-06-13 00:00:00 13.7 2 Noroeste 12 Noroeste 0 -- -- 28
2019-06-12 23:00:00 16.4 5 Noroeste 12 Noroeste 0 -- -- 25
2019-06-12 22:00:00 18.4 2 Noroeste 16 Sudoeste 0 -- -- 22
2019-06-12 21:00:00 20.3 6 Sudoeste 18 Sudoeste 0 -- -- 20
2019-06-12 20:00:00 24.1 7 Sudoeste 23 Sudoeste 0 -- -- 18
2019-06-12 19:00:00 24 8 Sudoeste 26 Sudoeste 0 -- -- 19
2019-06-12 18:00:00 24.5 -- -- -- -- -- -- -- --
2019-06-12 17:00:00 22.8 11 Sudeste 33 Sudeste 0 -- -- 21
2019-06-12 16:00:00 22.3 10 Sur 28 Sudeste 0 -- -- 24
2019-06-12 15:00:00 20.7 13 Sudeste 31 Sudeste 0 -- -- 27
2019-06-12 14:00:00 20.6 10 Sudeste 28 Sur 0 -- -- 28
2019-06-12 13:00:00 20.4 10 Sur 26 Sudeste 0 -- -- 29
2019-06-12 12:00:00 19.3 9 Sudeste 20 Sudeste 0 -- -- 30
2019-06-12 11:00:00 17.4 9 Sudeste 21 Sudeste 0 -- -- 35
2019-06-12 10:00:00 16.4 6 Sur 15 Sur 0 -- -- 37
2019-06-12 09:00:00 14.7 4 Sudeste 13 Sur 0 -- -- 42
2019-06-12 08:00:00 12.5 3 Sudeste 13 Oeste 0 -- -- 46
2019-06-12 07:00:00 9.3 6 Noroeste 13 Noroeste 0 -- -- 54
2019-06-12 06:00:00 7.8 0 Calma 9 Nordeste 0 -- -- 56
2019-06-12 05:00:00 8.9 4 Nordeste 22 Noroeste 0 -- -- 52
2019-06-12 04:00:00 10.7 12 Oeste 23 Oeste 0 -- -- 47
2019-06-12 03:00:00 10.4 5 Noroeste 19 Oeste 0 -- -- 47
2019-06-12 02:00:00 11.2 3 Sur 25 Norte 0 -- -- 44
2019-06-12 01:00:00 12.1 11 Norte 26 Norte 0 -- -- 40
2019-06-12 00:00:00 12.6 8 Norte 19 Noroeste 0 -- -- 36
2019-06-11 23:00:00 13.1 6 Noroeste 12 Noroeste 0 -- -- 33
2019-06-11 22:00:00 14.6 6 Norte 20 Norte 0 -- -- 31
2019-06-11 21:00:00 16.3 8 Nordeste 30 Nordeste 0 -- -- 28
2019-06-11 20:00:00 18.6 14 Norte 33 Nordeste 0 -- -- 24
2019-06-11 19:00:00 19.5 13 Norte 38 Nordeste 0 -- -- 22
2019-06-11 18:00:00 19.3 12 Norte 41 Nordeste 0 -- -- 22
2019-06-11 17:00:00 18.2 21 Nordeste 38 Nordeste 0 -- -- 26
2019-06-11 16:00:00 18.9 12 Norte 37 Nordeste 0 -- -- 30
2019-06-11 15:00:00 16 13 Norte 33 Nordeste 0 -- -- 34
2019-06-11 14:00:00 16.8 17 Norte 49 Noroeste 0 -- -- 39
2019-06-11 13:00:00 17.2 17 Norte 54 Norte 0 -- -- 38
2019-06-11 12:00:00 15.1 21 Norte 49 Noroeste 0 -- -- 46
2019-06-11 11:00:00 14.6 17 Norte 49 Norte 0 -- -- 49
2019-06-11 10:00:00 14.3 17 Norte 48 Norte 0 -- -- 51
2019-06-11 09:00:00 14 13 Noroeste 48 Noroeste 0 -- -- 54
2019-06-11 08:00:00 12.6 22 Noroeste 55 Noroeste 0 -- -- 61
2019-06-11 07:00:00 11.5 30 Noroeste 59 Noroeste 0 -- -- 64
2019-06-11 06:00:00 12.7 20 Noroeste 48 Noroeste 0 -- -- 59
2019-06-11 05:00:00 13.8 16 Noroeste 54 Noroeste 0 -- -- 51
2019-06-11 04:00:00 14.6 25 Noroeste 63 Noroeste 0 -- -- 50
2019-06-11 03:00:00 15.2 28 Noroeste 54 Norte 0 -- -- 49
2019-06-11 02:00:00 16 25 Noroeste 47 Norte 0 -- -- 40
2019-06-11 01:00:00 16.8 19 Noroeste 32 Noroeste 0 -- -- 30
2019-06-11 00:00:00 17 9 Oeste 36 Noroeste 0 -- -- 26
2019-06-10 23:00:00 18.6 14 Noroeste 30 Noroeste 0 -- -- 28
2019-06-10 22:00:00 19.7 7 Noroeste 19 Noroeste 0 -- -- 28
2019-06-10 21:00:00 21 -- -- -- -- 0 -- -- 26
2019-06-10 20:00:00 24.4 8 Noroeste 23 Oeste 0 -- -- 18
2019-06-10 19:00:00 24.2 11 Nordeste 28 Noroeste 0 -- -- 22
2019-06-10 18:00:00 24.2 10 Norte 30 Nordeste 0 -- -- 23
2019-06-10 17:00:00 23.7 12 Norte 28 Noroeste 0 -- -- 25
2019-06-10 16:00:00 23.2 12 Norte 28 Nordeste 0 -- -- 27
2019-06-10 15:00:00 22.7 10 Norte 24 Nordeste 0 -- -- 28
2019-06-10 14:00:00 21.5 14 Norte 33 Norte 0 -- -- 32
2019-06-10 13:00:00 20.9 12 Noroeste 31 Norte 0 -- -- 35
2019-06-10 12:00:00 19.3 12 Norte 28 Oeste 0 -- -- 41
2019-06-10 11:00:00 18.9 10 Norte 28 Sudoeste 0 -- -- 44
2019-06-10 10:00:00 16.4 12 Noroeste 34 Noroeste 0 -- -- 52
2019-06-10 09:00:00 15.7 8 Noroeste 31 Oeste 0 -- -- 55
2019-06-10 08:00:00 12.6 18 Noroeste 38 Noroeste 0 -- -- 68
2019-06-10 07:00:00 11.4 19 Noroeste 34 Noroeste 0 -- -- 71
2019-06-10 06:00:00 12.2 18 Noroeste 37 Oeste 0 -- -- 61
2019-06-10 05:00:00 12.5 15 Oeste 30 Oeste 0 -- -- 58
2019-06-10 04:00:00 13.6 15 Noroeste 36 Noroeste 0 -- -- 54
2019-06-10 03:00:00 14.2 10 Norte 40 Norte 0 -- -- 52
2019-06-10 02:00:00 15 21 Noroeste 43 Noroeste 0 -- -- 49
2019-06-10 01:00:00 15.9 19 Noroeste 40 Norte 0 -- -- 47
2019-06-10 00:00:00 16.9 16 Norte 41 Norte 0 -- -- 43
2019-06-09 23:00:00 17.9 14 Noroeste 35 Noroeste 0 -- -- 38
2019-06-09 22:00:00 19.2 14 Norte 31 Norte 0 -- -- 33
2019-06-09 21:00:00 20.7 13 Noroeste 33 Noroeste 0 -- -- 30
2019-06-09 20:00:00 22.5 9 Oeste 22 Oeste 0 -- -- 28
2019-06-09 19:00:00 23 10 Nordeste 25 Noroeste 0 -- -- 27
2019-06-09 18:00:00 25.2 13 Noroeste 31 Oeste 0 -- -- 24
2019-06-09 17:00:00 25.9 10 Norte 25 Noroeste 0 -- -- 23
2019-06-09 16:00:00 25.6 10 Sudeste 40 Este 0 -- -- 20
2019-06-09 15:00:00 25.5 12 Sudeste 29 Sur 0 -- -- 19
2019-06-09 14:00:00 26 13 Sur 35 Sur 0 -- -- 19
2019-06-09 13:00:00 25.3 12 Sur 29 Sur 0 -- -- 18
2019-06-09 12:00:00 24.5 11 Sur 22 Sur 0 -- -- 16
2019-06-09 11:00:00 22.6 6 Sudoeste 17 Sur 0 -- -- 27
2019-06-09 10:00:00 20.4 6 Sur 14 Sur 0 -- -- 38
2019-06-09 09:00:00 19.3 4 Sur 8 Sudeste 0 -- -- 38
2019-06-09 08:00:00 16.5 0 Calma 5 Sudoeste 0 -- -- 43
2019-06-09 07:00:00 11.9 0 Calma 5 Sudoeste 0 -- -- 50
2019-06-09 06:00:00 12.9 0 Calma 4 Oeste 0 -- -- 46
2019-06-09 05:00:00 13.2 3 Noroeste 10 Noroeste 0 -- -- 45
2019-06-09 04:00:00 14.4 6 Noroeste 12 Noroeste 0 -- -- 36
2019-06-09 03:00:00 15.6 5 Norte 14 Oeste 0 -- -- 34
2019-06-09 02:00:00 18.6 8 Oeste 16 Noroeste 0 -- -- 29
2019-06-09 01:00:00 18.4 6 Noroeste 9 Noroeste 0 -- -- 29
2019-06-09 00:00:00 18.8 3 Noroeste 17 Oeste 0 -- -- 27
2019-06-08 23:00:00 20.2 9 Noroeste 18 Oeste 0 -- -- 25
2019-06-08 22:00:00 20.9 10 Oeste 15 Oeste 0 -- -- 24
2019-06-08 21:00:00 22 3 Oeste 14 Sudoeste 0 -- -- 22
2019-06-08 20:00:00 24.8 6 Sudoeste 19 Sur 0 -- -- 21
2019-06-08 19:00:00 25.1 9 Oeste 22 Sur 0 -- -- 21
2019-06-08 18:00:00 26.6 9 Sur 22 Sur 0 -- -- 19
2019-06-08 17:00:00 26.3 12 Sur 30 Sudeste 0 -- -- 22
2019-06-08 16:00:00 26.4 13 Sur 33 Sur 0 -- -- 20
2019-06-08 15:00:00 25.4 12 Sur 28 Sudeste 0 -- -- 26
2019-06-08 14:00:00 23.3 16 Sudeste 32 Sudeste 0 -- -- 32
2019-06-08 13:00:00 22.1 13 Sudeste 29 Sudeste 0 -- -- 32
2019-06-08 12:00:00 21 10 Este 25 Sudeste 0 -- -- 33
2019-06-08 11:00:00 20.7 12 Sudeste 23 Sudeste 0 -- -- 32
2019-06-08 10:00:00 19.9 6 Este 15 Este 0 -- -- 30
2019-06-08 09:00:00 18.6 2 Sudoeste 8 Este 0 -- -- 30
2019-06-08 08:00:00 14.3 0 Calma 9 Noroeste 0 -- -- 40
2019-06-08 07:00:00 9.4 6 Noroeste 11 Noroeste 0 -- -- 48
2019-06-08 06:00:00 8.8 3 Noroeste 15 Oeste 0 -- -- 50
2019-06-08 05:00:00 11 12 Noroeste 18 Oeste 0 -- -- 45
2019-06-08 04:00:00 10.6 3 Sur 11 Sur 0 -- -- 45
2019-06-08 03:00:00 12.5 4 Norte 28 Noroeste 0 -- -- 41
2019-06-08 02:00:00 13.1 10 Noroeste 27 Noroeste 0 -- -- 40
2019-06-08 01:00:00 13.4 13 Noroeste 26 Noroeste 0 -- -- 38
2019-06-08 00:00:00 13.5 7 Noroeste 21 Norte 0 -- -- 38
2019-06-07 23:00:00 14.2 9 Noroeste 23 Noroeste 0 -- -- 37
2019-06-07 22:00:00 15.3 10 Norte 23 Noroeste 0 -- -- 35
2019-06-07 21:00:00 16.7 10 Norte 24 Noroeste 0 -- -- 33
2019-06-07 20:00:00 20 9 Norte 27 Nordeste 0 -- -- 29
2019-06-07 19:00:00 20.9 10 Norte 26 Oeste 0 -- -- 28
2019-06-07 18:00:00 20.6 10 Norte 26 Norte 0 -- -- 28
2019-06-07 17:00:00 20.3 9 Nordeste 32 Sudoeste 0 -- -- 29
2019-06-07 16:00:00 18.3 9 Oeste 28 Oeste 0 -- -- 31
2019-06-07 15:00:00 19.3 5 Oeste 30 Oeste 0 -- -- 29
2019-06-07 14:00:00 17.2 14 Noroeste 29 Oeste 0 -- -- 34
2019-06-07 13:00:00 15.9 16 Noroeste 30 Noroeste 0 -- -- 38
2019-06-07 12:00:00 14.6 9 Noroeste 28 Noroeste 0 -- -- 43
2019-06-07 11:00:00 13.6 13 Noroeste 30 Oeste 0 -- -- 45
2019-06-07 10:00:00 11.7 7 Noroeste 47 Noroeste 0 -- -- 53
2019-06-07 09:00:00 11.6 6 Noroeste 24 Noroeste 0 -- -- 51
2019-06-07 08:00:00 10.2 13 Este 29 Oeste 0 -- -- 55
2019-06-07 07:00:00 7.8 14 Oeste 35 Oeste 0 -- -- 64
2019-06-07 06:00:00 8 18 Noroeste 42 Oeste 0 -- -- 64
2019-06-07 05:00:00 9.1 15 Oeste 40 Noroeste 0 -- -- 70
2019-06-07 04:00:00 9.1 6 Noroeste 32 Noroeste 0.6 -- -- 88
2019-06-07 03:00:00 11.8 9 Noroeste 30 Noroeste 0 -- -- 71
2019-06-07 02:00:00 12.4 3 Nordeste 14 Sur 0 -- -- 81
2019-06-07 01:00:00 13.7 5 Sudoeste 19 Sudoeste 0 -- -- 71
2019-06-07 00:00:00 15.2 4 Sur 23 Oeste 0 -- -- 57
2019-06-06 23:00:00 16.2 9 Sudoeste 33 Sur 0 -- -- 48
2019-06-06 22:00:00 17 8 Sudoeste 33 Oeste 0 -- -- 40
2019-06-06 21:00:00 17.9 13 Sudoeste 32 Sur 0 -- -- 38
2019-06-06 20:00:00 20.7 13 Sur 36 Sur 0 -- -- 33
2019-06-06 19:00:00 21.5 11 Sur 38 Sur 0 -- -- 31
2019-06-06 18:00:00 21.1 -- -- 39 Sur 0 -- -- 31
2019-06-06 17:00:00 21.1 14 Sur 35 Sur 0 -- -- 31
2019-06-06 16:00:00 20.4 15 Sur 35 Sur 0 -- -- 31
2019-06-06 15:00:00 19.6 17 Sur 32 Sur 0 -- -- 30
2019-06-06 14:00:00 18.8 14 Sur 33 Sudeste 0 -- -- 30
2019-06-06 13:00:00 18.6 14 Sur 33 Sur 0 -- -- 32
2019-06-06 12:00:00 17 18 Sur 36 Sur 0 -- -- 37
2019-06-06 11:00:00 15.8 18 Sudeste 32 Sudeste 0 -- -- 39
2019-06-06 10:00:00 15.1 8 Sudeste 17 Sudeste 0 -- -- 44
2019-06-06 09:00:00 13.6 5 Sudeste 9 Este 0 -- -- 46
2019-06-06 08:00:00 11.9 0 Calma 5 Oeste 0 -- -- 51
2019-06-06 07:00:00 7.5 0 Calma 13 Noroeste 0 -- -- 64
2019-06-06 06:00:00 8.1 2 Sudoeste 18 Noroeste 0 -- -- 61
2019-06-06 05:00:00 9.8 6 Noroeste 21 Norte 0 -- -- 56
2019-06-06 04:00:00 10.2 7 Noroeste 22 Norte 0 -- -- 55
2019-06-06 03:00:00 10.8 7 Norte 30 Noroeste 0 -- -- 53
2019-06-06 02:00:00 11.6 13 Noroeste 29 Noroeste 0 -- -- 52
2019-06-06 01:00:00 12.3 10 Noroeste 26 Noroeste 0 -- -- 49
2019-06-06 00:00:00 13.2 8 Noroeste 20 Noroeste 0 -- -- 44
2019-06-05 23:00:00 14.6 4 Oeste 19 Noroeste 0 -- -- 37
2019-06-05 22:00:00 15.3 10 Noroeste 25 Noroeste 0 -- -- 32
2019-06-05 21:00:00 16.1 9 Noroeste 22 Noroeste 0 -- -- 31
2019-06-05 20:00:00 18.3 12 Noroeste 29 Noroeste 0 -- -- 28
2019-06-05 19:00:00 19.2 11 Noroeste 26 Oeste 0 -- -- 27
2019-06-05 18:00:00 20 10 Noroeste 30 Oeste 0 -- -- 27
2019-06-05 17:00:00 17.7 14 Noroeste 32 Noroeste 0 -- -- 29
2019-06-05 16:00:00 18.7 13 Oeste 35 Oeste 0 -- -- 30
2019-06-05 15:00:00 18.4 12 Noroeste 32 Norte 0 -- -- 31
2019-06-05 14:00:00 16.9 11 Norte 35 Oeste 0 -- -- 36
2019-06-05 13:00:00 15.6 14 Oeste 41 Oeste 0 -- -- 39
2019-06-05 12:00:00 13.9 8 Sudoeste 39 Noroeste 0 -- -- 44
2019-06-05 11:00:00 12.8 13 Noroeste 46 Noroeste 0 -- -- 48
2019-06-05 10:00:00 12.9 18 Noroeste 50 Noroeste 0 -- -- 50
2019-06-05 09:00:00 11.6 24 Noroeste 49 Noroeste 0 -- -- 54
2019-06-05 08:00:00 10.2 15 Noroeste 48 Noroeste 0 -- -- 61
2019-06-05 07:00:00 9.7 17 Noroeste 49 Noroeste 0 -- -- 66
2019-06-05 06:00:00 10.4 23 Noroeste 56 Noroeste 0 -- -- 62
2019-06-05 05:00:00 11.4 22 Noroeste 50 Noroeste 0 -- -- 63
2019-06-05 04:00:00 12.1 16 Noroeste 45 Noroeste 0 -- -- 63
2019-06-05 03:00:00 13.9 23 Noroeste 46 Noroeste 0 -- -- 52
2019-06-05 02:00:00 15 14 Noroeste 35 Noroeste 0 -- -- 56
2019-06-05 01:00:00 16 11 Noroeste 24 Oeste 0 -- -- 59
2019-06-05 00:00:00 16.5 13 Noroeste 29 Noroeste 0 -- -- 60
2019-06-04 23:00:00 17.4 13 Noroeste 32 Noroeste 0 -- -- 57
2019-06-04 22:00:00 18.3 11 Noroeste 26 Noroeste 0 -- -- 55
2019-06-04 21:00:00 21.4 11 Oeste 27 Oeste 0 -- -- 42
2019-06-04 20:00:00 22.7 10 Sudoeste 26 Sur 0 -- -- 36
2019-06-04 19:00:00 25.7 13 Sudoeste 34 Sur 0 -- -- 33
2019-06-04 18:00:00 25.9 13 Sur 33 Sur 0 -- -- 32
2019-06-04 17:00:00 27.2 15 Sudoeste 33 Sur 0 -- -- 21
2019-06-04 16:00:00 28.3 12 Sur 32 Sur 0 -- -- 21
2019-06-04 15:00:00 28.5 13 Sur 34 Sur 0 -- -- 24
2019-06-04 14:00:00 28.2 11 Sudoeste 36 Sur 0 -- -- 27
2019-06-04 13:00:00 25.6 22 Sudeste 39 Sudeste 0 -- -- 31
2019-06-04 12:00:00 24.1 19 Sudeste 32 Sudeste 0 -- -- 27
2019-06-04 11:00:00 23.7 15 Sudeste 32 Sudeste 0 -- -- 30
2019-06-04 10:00:00 22.8 7 Sudeste 17 Sudeste 0 -- -- 41
2019-06-04 09:00:00 20.1 6 Sudeste 14 Sudeste 0 -- -- 51
2019-06-04 08:00:00 19 3 Norte 11 Noroeste 0 -- -- 56
2019-06-04 07:00:00 15.3 6 Norte 12 Nordeste 0 -- -- 47
2019-06-04 06:00:00 15.8 6 Norte 12 Noroeste 0 -- -- 42
2019-06-04 05:00:00 18.4 8 Noroeste 13 Oeste 0 -- -- 37
2019-06-04 04:00:00 18 6 Noroeste 11 Noroeste 0 -- -- 37
2019-06-04 03:00:00 21.3 5 Oeste 19 Oeste 0 -- -- 31
2019-06-04 02:00:00 21 4 Oeste 14 Noroeste 0 -- -- 30
2019-06-04 01:00:00 21.1 6 Noroeste 17 Noroeste 0 -- -- 28
2019-06-04 00:00:00 22.7 11 Oeste 18 Oeste 0 -- -- 26
2019-06-03 23:00:00 23.7 10 Noroeste 15 Oeste 0 -- -- 24
2019-06-03 22:00:00 25.2 6 Oeste 22 Sudoeste 0 -- -- 21
2019-06-03 21:00:00 26.8 8 Sudoeste 21 Oeste 0 -- -- 21
2019-06-03 20:00:00 29.5 10 Sudoeste 29 Sudoeste 0 -- -- 19
2019-06-03 19:00:00 30.9 10 Sudoeste 34 Sur 0 -- -- 18
2019-06-03 18:00:00 31.4 10 Sudoeste 34 Sur 0 -- -- 18
2019-06-03 17:00:00 31.1 15 Sudoeste 37 Sur 0 -- -- 17
2019-06-03 16:00:00 31 14 Sudoeste 39 Sudoeste 0 -- -- 20
2019-06-03 15:00:00 31.5 15 Sudoeste 45 Sudoeste 0 -- -- 20
2019-06-03 14:00:00 32.1 14 Sur 46 Sur 0 -- -- 20
2019-06-03 13:00:00 29.4 19 Sudeste 31 Sudeste 0 -- -- 22
2019-06-03 12:00:00 28 14 Sudeste 26 Sudeste 0 -- -- 24
2019-06-03 11:00:00 27.9 9 Sur 20 Sudeste 0 -- -- 28
2019-06-03 10:00:00 26.9 4 Sur 9 Sur 0 -- -- 28
2019-06-03 09:00:00 23.6 3 Este 6 Nordeste 0 -- -- 33
2019-06-03 08:00:00 22 3 Nordeste 5 Nordeste 0 -- -- 35
2019-06-03 07:00:00 19.5 3 Sudoeste 4 Noroeste 0 -- -- 37
2019-06-03 06:00:00 19.6 2 Norte 9 Noroeste 0 -- -- 37
2019-06-03 05:00:00 20.2 0 Calma 20 Oeste 0 -- -- 35
2019-06-03 04:00:00 21.7 6 Oeste 25 Oeste 0 -- -- 32
2019-06-03 03:00:00 22.3 10 Oeste 35 Noroeste 0 -- -- 31
2019-06-03 02:00:00 23.4 17 Oeste 32 Noroeste 0 -- -- 29
2019-06-03 01:00:00 24.3 16 Noroeste 28 Oeste 0 -- -- 28
2019-06-03 00:00:00 24.5 5 Noroeste 15 Oeste 0 -- -- 28
2019-06-02 23:00:00 26 7 Norte 23 Noroeste 0 -- -- 25
2019-06-02 22:00:00 26.7 12 Noroeste 23 Noroeste 0 -- -- 23
2019-06-02 21:00:00 28.2 7 Oeste 19 Sudoeste 0 -- -- 24
2019-06-02 20:00:00 29.4 8 Oeste 23 Sur 0 -- -- 21
2019-06-02 19:00:00 31.3 10 Sur 23 Sur 0 -- -- 20
2019-06-02 18:00:00 32.8 11 Sudoeste 28 Sudoeste 0 -- -- 20
2019-06-02 17:00:00 32.3 9 Sudoeste 24 Oeste 0 -- -- 21
2019-06-02 16:00:00 32.8 11 Sur 41 Sudeste 0 -- -- 21
2019-06-02 15:00:00 32.5 14 Sudeste 29 Sudeste 0 -- -- 21
2019-06-02 14:00:00 31.4 13 Sudeste 25 Sudeste 0 -- -- 23
2019-06-02 13:00:00 30.4 10 Sudeste 24 Sudeste 0 -- -- 24
2019-06-02 12:00:00 28.8 8 Sudeste 18 Sudeste 0 -- -- 27
2019-06-02 11:00:00 27.2 6 Sur 11 Sudoeste 0 -- -- 28
2019-06-02 10:00:00 25.5 4 Sur 10 Sur 0 -- -- 30
2019-06-02 09:00:00 24.3 3 Sur 8 Sudoeste 0 -- -- 31
2019-06-02 08:00:00 21.6 0 Calma 4 Norte 0 -- -- 36
2019-06-02 07:00:00 18 3 Oeste 12 Noroeste 0 -- -- 42
2019-06-02 06:00:00 19.7 9 Noroeste 14 Noroeste 0 -- -- 38
2019-06-02 05:00:00 21.4 2 Oeste 12 Noroeste 0 -- -- 35
2019-06-02 04:00:00 21.6 3 Norte 27 Oeste 0 -- -- 35
2019-06-02 03:00:00 24.1 14 Noroeste 32 Noroeste 0 -- -- 31
2019-06-02 02:00:00 23.5 10 Oeste 27 Noroeste 0 -- -- 31
2019-06-02 01:00:00 22.4 5 Noroeste 13 Noroeste 0 -- -- 33
2019-06-02 00:00:00 23.5 3 Norte 21 Oeste 0 -- -- 31
2019-06-01 23:00:00 25 15 Noroeste 21 Noroeste 0 -- -- 29
2019-06-01 22:00:00 24.7 3 Noroeste 8 Oeste 0 -- -- 29
2019-06-01 21:00:00 27.9 4 Sur 15 Sur 0 -- -- 26
2019-06-01 20:00:00 32 8 Sur 21 Sur 0 -- -- 22
2019-06-01 19:00:00 32.2 12 Sur 25 Sur 0 -- -- 21
2019-06-01 18:00:00 31.6 11 Sudeste 23 Sur 0 -- -- 21
2019-06-01 17:00:00 32.8 8 Sur 24 Sur 0 -- -- 20
2019-06-01 16:00:00 32.4 8 Sudoeste 23 Sur 0 -- -- 20
2019-06-01 15:00:00 31.5 10 Sur 24 Sudeste 0 -- -- 21
2019-06-01 14:00:00 30.1 10 Sudeste 22 Sur 0 -- -- 23
2019-06-01 13:00:00 28.4 8 Sur 20 Sur 0 -- -- 27
2019-06-01 12:00:00 27.1 8 Sur 17 Sudeste 0 -- -- 29
2019-06-01 11:00:00 25.3 5 Sudoeste 14 Sudoeste 0 -- -- 30
2019-06-01 10:00:00 24.3 4 Sur 10 Sudeste 0 -- -- 30
2019-06-01 09:00:00 22.2 4 Este 6 Este 0 -- -- 32
2019-06-01 08:00:00 19 0 Calma 6 Oeste 0 -- -- 37
2019-06-01 07:00:00 15.7 4 Oeste 8 Oeste 0 -- -- 40
2019-06-01 06:00:00 15.5 3 Oeste 8 Noroeste 0 -- -- 39
2019-06-01 05:00:00 15.4 2 Noroeste 10 Noroeste 0 -- -- 39
2019-06-01 04:00:00 16 6 Noroeste 12 Noroeste 0 -- -- 41
2019-06-01 03:00:00 16 0 Calma 10 Noroeste 0 -- -- 40
2019-06-01 02:00:00 16.7 3 Nordeste 14 Noroeste 0 -- -- 37
2019-06-01 01:00:00 19.4 4 Noroeste 9 Oeste 0 -- -- 32
2019-06-01 00:00:00 19.2 3 Noroeste 8 Oeste 0 -- -- 33
2019-05-31 23:00:00 21.2 4 Oeste 6 Oeste 0 -- -- 30
2019-05-31 22:00:00 24.2 2 Oeste 9 Sudoeste 0 -- -- 25
2019-05-31 21:00:00 26.9 4 Sudoeste 18 Sudoeste 0 -- -- 23
2019-05-31 20:00:00 30.7 7 Sur 25 Sudeste 0 -- -- 20
2019-05-31 19:00:00 31.2 8 Sur 26 Sur 0 -- -- 20
2019-05-31 18:00:00 31.2 10 Sur 22 Sur 0 -- -- 21
2019-05-31 17:00:00 30.9 12 Sur 31 Sudeste 0 -- -- 21
2019-05-31 16:00:00 30.5 9 Este 23 Sur 0 -- -- 22
2019-05-31 15:00:00 29.5 11 Sudeste 26 Sudeste 0 -- -- 23
2019-05-31 14:00:00 29.4 8 Sudeste 21 Sur 0 -- -- 23
2019-05-31 13:00:00 28.5 10 Sudeste 28 Sur 0 -- -- 24
2019-05-31 12:00:00 27.4 6 Sudeste 18 Sudeste 0 -- -- 27
2019-05-31 11:00:00 26.9 5 Sur 13 Sudoeste 0 -- -- 27
2019-05-31 10:00:00 24.4 5 Sudeste 10 Sur 0 -- -- 30
2019-05-31 09:00:00 23 5 Este 8 Nordeste 0 -- -- 31
2019-05-31 08:00:00 19.2 2 Nordeste 4 Oeste 0 -- -- 38
2019-05-31 07:00:00 14.4 3 Noroeste 12 Noroeste 0 -- -- 44
2019-05-31 06:00:00 17.1 7 Oeste 13 Noroeste 0 -- -- 37
2019-05-31 05:00:00 17.7 5 Noroeste 9 Noroeste 0 -- -- 36
2019-05-31 04:00:00 19.5 5 Norte 21 Nordeste 0 -- -- 33
2019-05-31 03:00:00 20.7 10 Norte 24 Nordeste 0 -- -- 28
2019-05-31 02:00:00 19.1 7 Norte 17 Nordeste 0 -- -- 29
2019-05-31 01:00:00 20.8 8 Noroeste 13 Norte 0 -- -- 28
2019-05-31 00:00:00 21 8 Norte 14 Norte 0 -- -- 28
2019-05-30 23:00:00 22 7 Noroeste 13 Noroeste 0 -- -- 26
2019-05-30 22:00:00 23.6 7 Noroeste 10 Noroeste 0 -- -- 25
2019-05-30 21:00:00 25.5 3 Noroeste 13 Sudeste 0 -- -- 26
2019-05-30 20:00:00 30.3 4 Sudoeste 19 Nordeste 0 -- -- 21
2019-05-30 19:00:00 29.5 9 Sur 24 Nordeste 0 -- -- 22
2019-05-30 18:00:00 29.8 8 Sudeste 24 Sudeste 0 -- -- 22
2019-05-30 17:00:00 29.1 10 Sudeste 24 Este 0 -- -- 22
2019-05-30 16:00:00 28.7 12 Sudeste 24 Este 0 -- -- 23
2019-05-30 15:00:00 28 10 Sudeste 28 Sudeste 0 -- -- 24
2019-05-30 14:00:00 27.2 10 Sur 21 Sudeste 0 -- -- 25
2019-05-30 13:00:00 26.3 6 Sur 17 Sudeste 0 -- -- 27
2019-05-30 12:00:00 25.1 6 Sur 16 Sudoeste 0 -- -- 30
2019-05-30 11:00:00 22.6 5 Sur 13 Sudoeste 0 -- -- 32
2019-05-30 10:00:00 19.9 5 Sudeste 11 Sudeste 0 -- -- 36
2019-05-30 09:00:00 18.7 4 Sur 8 Sur 0 -- -- 39
2019-05-30 08:00:00 15.8 0 Calma 6 Noroeste 0 -- -- 44
2019-05-30 07:00:00 11.6 5 Noroeste 9 Noroeste 0 -- -- 54
2019-05-30 06:00:00 11.9 5 Sudoeste 12 Noroeste 0 -- -- 55
2019-05-30 05:00:00 12.1 2 Norte 18 Noroeste 0 -- -- 55
2019-05-30 04:00:00 13.6 7 Norte 13 Norte 0 -- -- 53
2019-05-30 03:00:00 13.8 5 Sudeste 14 Sudeste 0 -- -- 53
2019-05-30 02:00:00 14.4 8 Noroeste 12 Noroeste 0 -- -- 51
2019-05-30 01:00:00 17.1 10 Oeste 32 Noroeste 0 -- -- 43
2019-05-30 00:00:00 16.8 10 Noroeste 28 Noroeste 0 -- -- 44
2019-05-29 23:00:00 17.4 8 Noroeste 41 Norte 0 -- -- 41
2019-05-29 22:00:00 18.5 14 Norte -- -- 0 -- -- 39
2019-05-29 21:00:00 20.3 16 Norte 35 Norte 0 -- -- 34
2019-05-29 20:00:00 23 17 Norte 44 Norte 0 -- -- 30
2019-05-29 19:00:00 -- -- -- -- -- -- -- -- --
2019-05-29 18:00:00 24.3 15 Norte 37 Nordeste 0 -- -- 29
2019-05-29 17:00:00 24.2 15 Nordeste 37 Nordeste 0 -- -- 30
2019-05-29 16:00:00 24.3 13 Norte 37 Noroeste 0 -- -- 30
2019-05-29 15:00:00 22.8 17 Norte 39 Noroeste 0 -- -- 33
2019-05-29 14:00:00 22.3 13 Norte 40 Noroeste 0 -- -- 34
2019-05-29 13:00:00 -- 15 Norte 39 Noroeste 0 -- -- --
2019-05-29 12:00:00 18.9 19 Noroeste 42 Noroeste 0 -- -- 37
2019-05-29 11:00:00 17.9 19 Noroeste 34 Norte 0 -- -- 37
2019-05-29 10:00:00 16.9 13 Norte 28 Noroeste 0 -- -- 39
2019-05-29 09:00:00 15.4 7 Norte 23 Noroeste 0 -- -- 42
2019-05-29 08:00:00 12.5 6 Norte 16 Noroeste 0 -- -- 50
2019-05-29 07:00:00 8.7 8 Noroeste 15 Norte 0 -- -- 62
2019-05-29 06:00:00 8.9 7 Norte 30 Noroeste 0 -- -- 60
2019-05-29 05:00:00 10 12 Norte 31 Noroeste 0 -- -- 56
2019-05-29 04:00:00 10.6 10 Norte 28 Norte 0 -- -- 54
2019-05-29 03:00:00 11.5 10 Norte 25 Noroeste 0 -- -- 52
2019-05-29 02:00:00 12.7 11 Noroeste 24 Norte 0 -- -- 47
2019-05-29 01:00:00 13.7 11 Norte 26 Nordeste 0 -- -- 48
2019-05-29 00:00:00 14.5 11 Nordeste 29 Norte 0 -- -- 47
2019-05-28 23:00:00 15.6 8 Norte 18 Nordeste 0 -- -- 44
2019-05-28 22:00:00 17 6 Nordeste 30 Norte 0 -- -- 40
2019-05-28 21:00:00 18.8 13 Nordeste 31 Norte 0 -- -- 36
2019-05-28 20:00:00 21.4 17 Nordeste 40 Nordeste 0 -- -- 32
2019-05-28 19:00:00 23.8 14 Norte 38 Noroeste 0 -- -- 27
2019-05-28 18:00:00 24 -- -- -- -- -- -- -- --
2019-05-28 17:00:00 23.8 15 Norte 39 Nordeste 0 -- -- 24
2019-05-28 16:00:00 24.1 13 Nordeste 37 Norte 0 -- -- 23
2019-05-28 15:00:00 23.2 13 Norte 37 Noroeste 0 -- -- 24
2019-05-28 14:00:00 21.5 17 Noroeste 35 Noroeste 0 -- -- 26
2019-05-28 13:00:00 20.8 13 Norte 38 Nordeste 0 -- -- 27
2019-05-28 12:00:00 20.1 13 Norte 33 Noroeste 0 -- -- 30
2019-05-28 11:00:00 18.4 14 Noroeste 36 Noroeste 0 -- -- 40
2019-05-28 10:00:00 16.8 11 Noroeste 39 Noroeste 0 -- -- 47
2019-05-28 09:00:00 16 11 Noroeste 28 Noroeste 0 -- -- 54
2019-05-28 08:00:00 15.5 6 Sudeste 17 Oeste 0 -- -- 59
2019-05-28 07:00:00 13 7 Este 17 Noroeste 0 -- -- 67
2019-05-28 06:00:00 13.2 6 Sur 18 Sudoeste 0 -- -- 66
2019-05-28 05:00:00 14.2 5 Sur 18 Noroeste 0 -- -- 64
2019-05-28 04:00:00 14.4 5 Noroeste 14 Oeste 0 -- -- 61
2019-05-28 03:00:00 16.3 9 Noroeste 17 Oeste 0 -- -- 54
2019-05-28 02:00:00 16.8 4 Sur 23 Norte 0 -- -- 52
2019-05-28 01:00:00 17.8 9 Norte 27 Noroeste 0 -- -- 50
2019-05-28 00:00:00 18.7 8 Nordeste 21 Noroeste 0 -- -- 46
2019-05-27 23:00:00 19.6 8 Norte 18 Noroeste 0 -- -- 41
2019-05-27 22:00:00 20.9 7 Norte 22 Norte 0 -- -- 38
2019-05-27 21:00:00 22.5 9 Norte 25 Norte 0 -- -- 35
2019-05-27 20:00:00 25.3 9 Norte 28 Norte 0 -- -- 29
2019-05-27 19:00:00 26.4 10 Norte 28 Noroeste 0 -- -- 28
2019-05-27 18:00:00 26.3 10 Norte 31 Noroeste 0 -- -- 28
2019-05-27 17:00:00 26 14 Norte 38 Norte 0 -- -- 28
2019-05-27 16:00:00 25.9 15 Noroeste 35 Nordeste 0 -- -- 29
2019-05-27 15:00:00 26.3 10 Noroeste 33 Nordeste 0 -- -- 29
2019-05-27 14:00:00 25.7 10 Norte 28 Noroeste 0 -- -- 30
2019-05-27 13:00:00 23.7 15 Noroeste 31 Nordeste 0 -- -- 35
2019-05-27 12:00:00 24.6 7 Noroeste 25 Norte 0 -- -- 34
2019-05-27 11:00:00 23.2 9 Norte 28 Noroeste 0 -- -- 35
2019-05-27 10:00:00 21.1 13 Oeste 24 Noroeste 0 -- -- 39
2019-05-27 09:00:00 20.9 3 Sudeste 13 Sudeste 0 -- -- 41
2019-05-27 08:00:00 16.3 3 Sudoeste 9 Norte 0 -- -- 49
2019-05-27 07:00:00 16.3 2 Nordeste 15 Oeste 0 -- -- 47
2019-05-27 06:00:00 16.4 4 Sudoeste 16 Noroeste 0 -- -- 47
2019-05-27 05:00:00 15.7 4 Nordeste 14 Norte 0 -- -- 50
2019-05-27 04:00:00 16.2 4 Norte 24 Oeste 0 -- -- 49
2019-05-27 03:00:00 17.3 6 Noroeste 20 Noroeste 0 -- -- 44
2019-05-27 02:00:00 17.8 6 Norte 24 Norte 0 -- -- 45
2019-05-27 01:00:00 18.3 12 Norte 28 Noroeste 0 -- -- 44
2019-05-27 00:00:00 18.6 12 Noroeste 24 Noroeste 0 -- -- 45
2019-05-26 23:00:00 18.7 7 Norte 24 Norte 0 -- -- 45
2019-05-26 22:00:00 19.7 10 Norte 26 Norte 0 -- -- 42
2019-05-26 21:00:00 21.1 9 Norte 37 Nordeste 0 -- -- 38
2019-05-26 20:00:00 23.7 17 Norte 40 Nordeste 0 -- -- 33
2019-05-26 19:00:00 24.4 15 Norte 41 Nordeste 0 -- -- 30
2019-05-26 18:00:00 24.5 15 Nordeste 44 Norte 0 -- -- 33
2019-05-26 17:00:00 24.2 17 Nordeste 44 Norte 0 -- -- 35
2019-05-26 16:00:00 23.4 19 Nordeste 48 Norte 0 -- -- 37
2019-05-26 15:00:00 23.4 15 Norte 46 Norte 0 -- -- 37
2019-05-26 14:00:00 22.2 17 Norte 43 Nordeste 0 -- -- 39
2019-05-26 13:00:00 20.5 19 Nordeste 42 Nordeste 0 -- -- 41
2019-05-26 12:00:00 19.3 14 Noroeste 44 Noroeste 0 -- -- 44
2019-05-26 11:00:00 16.8 19 Noroeste 37 Noroeste 0 -- -- 48
2019-05-26 10:00:00 14.5 19 Noroeste 35 Noroeste 0 -- -- 52
2019-05-26 09:00:00 14.2 6 Noroeste 28 Noroeste 0 -- -- 53
2019-05-26 08:00:00 10.9 15 Noroeste 33 Noroeste 0 -- -- 63
2019-05-26 07:00:00 9 6 Norte 19 Noroeste 0 -- -- 67
2019-05-26 06:00:00 9.3 4 Este 23 Oeste 0 -- -- 65
2019-05-26 05:00:00 10.2 12 Oeste 32 Oeste 0 -- -- 62
2019-05-26 04:00:00 10.9 15 Noroeste 29 Noroeste 0 -- -- 61
2019-05-26 03:00:00 11.9 3 Norte 9 Oeste 0 -- -- 49
2019-05-26 02:00:00 13.6 5 Nordeste 27 Norte 0 -- -- 44
2019-05-26 01:00:00 14.2 12 Nordeste 31 Norte 0 -- -- 48
2019-05-26 00:00:00 14.9 15 Norte 40 Norte 0 -- -- 46
2019-05-25 23:00:00 15.5 15 Norte 35 Norte 0 -- -- 45
2019-05-25 22:00:00 16.7 14 Norte 41 Norte 0 -- -- 42
2019-05-25 21:00:00 18.3 13 Norte 39 Noroeste 0 -- -- 40
2019-05-25 20:00:00 21.1 15 Norte 35 Norte 0 -- -- 33
2019-05-25 19:00:00 22.5 13 Norte 35 Norte 0 -- -- 32
2019-05-25 18:00:00 22.1 16 Norte 33 Noroeste 0 -- -- 32
2019-05-25 17:00:00 22.3 15 Norte 36 Norte 0 -- -- 33
2019-05-25 16:00:00 21.6 15 Norte 33 Noroeste 0 -- -- 34
2019-05-25 15:00:00 20.7 14 Norte 39 Noroeste 0 -- -- 36
2019-05-25 14:00:00 19.7 15 Norte 37 Norte 0 -- -- 39
2019-05-25 13:00:00 18 17 Norte 38 Norte 0 -- -- 43
2019-05-25 12:00:00 17.5 14 Norte 39 Nordeste 0 -- -- 45
2019-05-25 11:00:00 15.4 17 Norte 43 Norte 0 -- -- 49
2019-05-25 10:00:00 14.4 17 Norte 40 Norte 0 -- -- 54
2019-05-25 09:00:00 14 12 Norte 34 Norte 0 -- -- 57
2019-05-25 08:00:00 12.2 9 Norte 39 Noroeste 0 -- -- 63
2019-05-25 07:00:00 9.9 12 Norte 45 Norte 0 -- -- 70
2019-05-25 06:00:00 10 18 Norte 47 Noroeste 0 -- -- 71
2019-05-25 05:00:00 10.4 21 Noroeste 52 Noroeste 0 -- -- 69
2019-05-25 04:00:00 10.1 17 Noroeste 45 Norte 0 -- -- 69
2019-05-25 03:00:00 10.5 18 Norte 40 Norte 0 -- -- 68
2019-05-25 02:00:00 10.5 10 Norte 29 Norte 0 -- -- 68
2019-05-25 01:00:00 11.5 14 Nordeste 35 Nordeste 0 -- -- 63
2019-05-25 00:00:00 13 9 Norte 34 Norte 0 -- -- 55
2019-05-24 23:00:00 13.9 10 Norte 35 Nordeste 0 -- -- 49
2019-05-24 22:00:00 14.8 15 Norte 46 Norte 0 -- -- 46
2019-05-24 21:00:00 16 15 Norte 38 Norte 0 -- -- 42
2019-05-24 20:00:00 18.5 16 Norte 48 Nordeste 0 -- -- 38
2019-05-24 19:00:00 20.1 19 Nordeste 49 Nordeste 0 -- -- 36
2019-05-24 18:00:00 21.5 19 Nordeste 46 Nordeste 0 -- -- 31
2019-05-24 17:00:00 21.4 17 Nordeste 42 Nordeste 0 -- -- 33
2019-05-24 16:00:00 21.3 17 Norte 57 Nordeste 0 -- -- 35
2019-05-24 15:00:00 20.3 23 Nordeste 49 Norte 0 -- -- 40
2019-05-24 14:00:00 19.8 15 Norte 45 Nordeste 0 -- -- 47
2019-05-24 13:00:00 18.5 16 Nordeste 40 Noroeste 0 -- -- 53
2019-05-24 12:00:00 16.8 13 Norte 33 Noroeste 0 -- -- 58
2019-05-24 11:00:00 16.3 13 Noroeste 37 Noroeste 0 -- -- 58
2019-05-24 10:00:00 13.6 24 Noroeste 45 Noroeste 0 -- -- 70
2019-05-24 09:00:00 13.8 10 Noroeste 37 Noroeste 0 -- -- 72
2019-05-24 08:00:00 12.4 18 Noroeste 46 Noroeste 0 -- -- 78
2019-05-24 07:00:00 12.6 20 Noroeste 41 Noroeste 0 -- -- 75
2019-05-24 06:00:00 13.6 19 Noroeste 43 Noroeste 0 -- -- 65
2019-05-24 05:00:00 14.7 13 Noroeste 44 Noroeste 0 -- -- 57
2019-05-24 04:00:00 15.5 16 Noroeste 48 Oeste 0 -- -- 55
2019-05-24 03:00:00 16.1 21 Noroeste 45 Noroeste 0 -- -- 53
2019-05-24 02:00:00 16.7 21 Noroeste 45 Norte 0 -- -- 55
2019-05-24 01:00:00 17.6 19 Noroeste 42 Norte 0 -- -- 52
2019-05-24 00:00:00 19.2 15 Noroeste 37 Noroeste 0 -- -- 41
2019-05-23 23:00:00 20.3 13 Norte 29 Noroeste 0 -- -- 35
2019-05-23 22:00:00 21.8 12 Norte 28 Norte 0 -- -- 34
2019-05-23 21:00:00 23 9 Oeste 21 Oeste 0 -- -- 37
2019-05-23 20:00:00 25 8 Sudoeste 23 Sudoeste 0 -- -- 24
2019-05-23 19:00:00 27.6 12 Sudoeste 29 Sudoeste 0 -- -- 23
2019-05-23 18:00:00 28 12 Sur 28 Sudoeste 0 -- -- 23
2019-05-23 17:00:00 28.3 10 Sur 29 Sur 0 -- -- 22
2019-05-23 16:00:00 28.2 12 Sur 32 Sur 0 -- -- 23
2019-05-23 15:00:00 27.8 13 Sur 35 Sur 0 -- -- 27
2019-05-23 14:00:00 27.3 14 Sudoeste 35 Sudoeste 0 -- -- 29
2019-05-23 13:00:00 25.7 12 Sudeste 24 Sur 0 -- -- 33
2019-05-23 12:00:00 24.1 8 Sur 18 Sur 0 -- -- 36
2019-05-23 11:00:00 23.4 4 Sudoeste 12 Sudoeste 0 -- -- 40
2019-05-23 10:00:00 20.8 4 Sudeste 9 Sur 0 -- -- 46
2019-05-23 09:00:00 20.4 4 Sur 8 Sur 0 -- -- 47
2019-05-23 08:00:00 17.6 2 Norte 8 Oeste 0 -- -- 54
2019-05-23 07:00:00 15.9 5 Sudoeste 13 Norte 0 -- -- 58
2019-05-23 06:00:00 17 4 Nordeste 19 Noroeste 0 -- -- 52
2019-05-23 05:00:00 18 7 Noroeste 27 Oeste 0 -- -- 48
2019-05-23 04:00:00 18.7 8 Oeste 21 Noroeste 0 -- -- 40
2019-05-23 03:00:00 17.5 3 Norte 11 Nordeste 0 -- -- 42
2019-05-23 02:00:00 18.6 5 Noroeste 24 Noroeste 0 -- -- 39
2019-05-23 01:00:00 19.7 15 Oeste 28 Oeste 0 -- -- 38
2019-05-23 00:00:00 20.9 10 Noroeste 22 Noroeste 0 -- -- 35
2019-05-22 23:00:00 19.8 3 Norte 11 Noroeste 0 -- -- 42
2019-05-22 22:00:00 20.8 5 Oeste 12 Noroeste 0 -- -- 40
2019-05-22 21:00:00 21.8 0 Calma 16 Sur 0 -- -- 37
2019-05-22 20:00:00 26.1 6 Sur 15 Sur 0 -- -- 30
2019-05-22 19:00:00 26.1 8 Sur 19 Sur 0 -- -- 29
2019-05-22 18:00:00 26.1 5 Sur 21 Sudoeste 0 -- -- 28
2019-05-22 17:00:00 25.3 7 Noroeste 21 Sur 0 -- -- 28
2019-05-22 16:00:00 27.2 8 Sur 26 Sudeste 0 -- -- 26
2019-05-22 15:00:00 26.2 11 Sudeste 23 Sudeste 0 -- -- 27
2019-05-22 14:00:00 25.7 10 Sur 23 Sudeste 0 -- -- 28
2019-05-22 13:00:00 25.6 11 Sudeste 24 Sudeste 0 -- -- 27
2019-05-22 12:00:00 24.4 8 Sur 20 Sudeste 0 -- -- 30
2019-05-22 11:00:00 22.5 5 Sudoeste 13 Sur 0 -- -- 34
2019-05-22 10:00:00 20.1 4 Sur 12 Sur 0 -- -- 38
2019-05-22 09:00:00 18.1 2 Sur 8 Sudoeste 0 -- -- 41
2019-05-22 08:00:00 13.8 5 Nordeste 20 Oeste 0 -- -- 51
2019-05-22 07:00:00 10.9 9 Noroeste 15 Noroeste 0 -- -- 58
2019-05-22 06:00:00 10.4 3 Noroeste 8 Oeste 0 -- -- 58
2019-05-22 05:00:00 10.9 4 Oeste 8 Noroeste 0 -- -- 57
2019-05-22 04:00:00 12.3 3 Oeste 13 Norte 0 -- -- 53
2019-05-22 03:00:00 13.2 0 Calma 8 Noroeste 0 -- -- 49
2019-05-22 02:00:00 13.7 4 Norte 15 Noroeste 0 -- -- 48
2019-05-22 01:00:00 15.3 4 Oeste 6 Sudoeste 0 -- -- 44
2019-05-22 00:00:00 15.6 2 Nordeste 13 Noroeste 0 -- -- 43